| time (UTC) | temp F | wind direction | speed knots | gust knots | rain 1hr in | rain 24hr in | rain mn in | humidity % | barometer mb |
| 20260503213047 | 65 | 96 | 0.9 | 3.5 | 0.00 | 0.00 | 0.00 | 32 | 1013.6 |
| 20260503211546 | 64 | 180 | 1.7 | 5.2 | 0.00 | 0.00 | 0.00 | 32 | 1013.8 |
| 20260503210034 | 64 | 219 | 1.7 | 3.5 | 0.00 | 0.00 | 0.00 | 31 | 1013.9 |
| 20260503204536 | 64 | 38 | 0.9 | 7.0 | 0.00 | 0.00 | 0.00 | 34 | 1014.1 |
| 20260503203044 | 64 | 159 | 0.9 | 3.5 | 0.00 | 0.00 | 0.00 | 37 | 1014.2 |
| 20260503201533 | 64 | 186 | 0.9 | 5.2 | 0.00 | 0.00 | 0.00 | 36 | 1014.3 |
| 20260503200033 | 65 | 227 | 0.9 | 3.5 | 0.00 | 0.00 | 0.00 | 35 | 1014.6 |
| 20260503194532 | 64 | 91 | 0.9 | 2.6 | 0.00 | 0.00 | 0.00 | 32 | 1014.8 |
| 20260503193031 | 64 | 169 | 0.9 | 3.5 | 0.00 | 0.00 | 0.00 | 34 | 1015.0 |
| 20260503191534 | 64 | 218 | 2.6 | 5.2 | 0.00 | 0.00 | 0.00 | 35 | 1015.2 |
| 20260503190028 | 63 | 40 | 0.0 | 6.1 | 0.00 | 0.00 | 0.00 | 38 | 1015.4 |
| 20260503184526 | 63 | 162 | 0.9 | 3.5 | 0.00 | 0.00 | 0.00 | 44 | 1015.5 |
| 20260503183024 | 62 | 84 | 0.0 | 2.6 | 0.00 | 0.00 | 0.00 | 46 | 1015.7 |
| 20260503181522 | 61 | 142 | 0.0 | 3.5 | 0.00 | 0.00 | 0.00 | 47 | 1015.9 |
| 20260503180108 | 60 | 132 | 0.9 | 5.2 | 0.00 | 0.00 | 0.00 | 45 | 1016.0 |
| 20260503174600 | 60 | 281 | 0.9 | 2.6 | 0.00 | 0.00 | 0.00 | 44 | 1016.1 |
| 20260503173029 | 58 | 216 | 0.0 | 3.5 | 0.00 | 0.00 | 0.00 | 47 | 1016.4 |
| 20260503171525 | 59 | 32 | 0.9 | 2.6 | 0.00 | 0.00 | 0.00 | 55 | 1016.7 |
| 20260503110106 | 35 | 232 | 0.0 | 0.0 | 0.00 | 0.00 | 0.00 | 91 | 1016.6 |
| 20260503081520 | 38 | 232 | 0.0 | 0.0 | 0.00 | 0.00 | 0.00 | 87 | 1014.8 |
| 20260503071509 | 40 | 232 | 0.0 | 0.0 | 0.00 | 0.00 | 0.00 | 86 | 1014.1 |
| 20260503054535 | 42 | 232 | 0.0 | 0.0 | 0.00 | 0.00 | 0.00 | 84 | 1014.1 |
| 20260503053033 | 42 | 232 | 0.0 | 0.0 | 0.00 | 0.00 | 0.00 | 85 | 1014.0 |
| 20260503051527 | 42 | 232 | 0.0 | 0.0 | 0.00 | 0.00 | 0.00 | 85 | 1014.2 |
| 20260503050035 | 42 | 232 | 0.0 | 0.0 | 0.00 | 0.00 | 0.00 | 85 | 1014.1 |
| 20260503044522 | 41 | 232 | 0.0 | 0.9 | 0.00 | 0.00 | 0.00 | 85 | 1013.9 |
| 20260503043020 | 41 | 232 | 0.0 | 0.9 | 0.00 | 0.00 | 0.00 | 85 | 1013.9 |
| 20260503041527 | 41 | 232 | 0.0 | 0.0 | 0.00 | 0.00 | 0.00 | 84 | 1013.6 |
| 20260503040019 | 41 | 232 | 0.0 | 0.0 | 0.00 | 0.00 | 0.00 | 84 | 1013.6 |
| 20260503034547 | 41 | 232 | 0.0 | 0.9 | 0.00 | 0.00 | 0.00 | 83 | 1013.3 |
| 20260503033045 | 41 | 232 | 0.0 | 1.7 | 0.00 | 0.00 | 0.00 | 83 | 1013.3 |
| 20260503031546 | 41 | 232 | 0.0 | 0.9 | 0.00 | 0.00 | 0.00 | 82 | 1013.3 |
| 20260503030047 | 41 | 232 | 0.0 | 0.0 | 0.00 | 0.00 | 0.00 | 82 | 1013.2 |
| 20260503024537 | 41 | 232 | 0.0 | 0.0 | 0.00 | 0.00 | 0.00 | 82 | 1013.1 |
| 20260503023037 | 41 | 232 | 0.0 | 0.9 | 0.00 | 0.00 | 0.00 | 82 | 1012.9 |
| 20260503021532 | 42 | 232 | 0.0 | 0.0 | 0.00 | 0.00 | 0.00 | 81 | 1012.6 |
| 20260503020030 | 42 | 232 | 0.0 | 0.0 | 0.00 | 0.00 | 0.00 | 80 | 1012.5 |
| 20260503014527 | 43 | 232 | 0.0 | 0.0 | 0.00 | 0.00 | 0.00 | 79 | 1012.1 |
| 20260503013027 | 43 | 232 | 0.0 | 0.0 | 0.00 | 0.00 | 0.00 | 77 | 1011.9 |
| 20260503011522 | 44 | 232 | 0.0 | 0.0 | 0.00 | 0.00 | 0.00 | 76 | 1011.7 |
| 20260503010021 | 45 | 232 | 0.0 | 0.0 | 0.00 | 0.00 | 0.00 | 74 | 1011.4 |
| 20260503004513 | 46 | 232 | 0.0 | 0.0 | 0.00 | 0.00 | 0.00 | 71 | 1011.1 |
| 20260503003010 | 48 | 232 | 0.0 | 0.0 | 0.00 | 0.00 | 0.00 | 69 | 1011.0 |
| 20260503001512 | 49 | 232 | 0.0 | 0.9 | 0.00 | 0.00 | 0.00 | 65 | 1010.9 |
| 20260503000005 | 51 | 232 | 0.0 | 0.9 | 0.00 | 0.00 | 0.00 | 62 | 1010.6 |
| 20260502234503 | 53 | 232 | 0.0 | 1.7 | 0.00 | 0.00 | 0.00 | 56 | 1010.4 |
| 20260502233002 | 54 | 231 | 0.9 | 4.3 | 0.00 | 0.00 | 0.00 | 48 | 1010.3 |
| 20260502231502 | 56 | 140 | 1.7 | 5.2 | 0.00 | 0.00 | 0.00 | 46 | 1010.1 |
| 20260502230035 | 56 | 175 | 0.9 | 2.6 | 0.00 | 0.00 | 0.00 | 44 | 1009.7 |
| 20260502224532 | 57 | 360 | 0.9 | 4.3 | 0.00 | 0.00 | 0.00 | 44 | 1009.8 |
| 20260502223027 | 58 | 17 | 0.0 | 1.7 | 0.00 | 0.00 | 0.00 | 48 | 1009.7 |
| 20260502221527 | 58 | 190 | 1.7 | 3.5 | 0.00 | 0.00 | 0.00 | 45 | 1009.5 |
| 20260502220028 | 58 | 113 | 0.9 | 7.0 | 0.00 | 0.00 | 0.00 | 45 | 1009.5 |
| 20260502214526 | 59 | 234 | 1.7 | 3.5 | 0.00 | 0.00 | 0.00 | 42 | 1009.1 |